Regional Weather Roundup
Issued by NWS

Home | Current Version | Previous Version | Text Only | Print | Product List | Glossary Off
Versions: 1 2 3 4 5 6 7 8 9 10 11 12 13 14 15 16 17 18 19 20 21 22 23 24 25 26 27 28 29 30 31 32 33 34 35 36 37 38 39 40 41 42 43 44 45 46 47 48 49 50

574
ASUS45 KBOI 261210
RWRID

IDAHO REGIONAL WEATHER ROUNDUP
NATIONAL WEATHER SERVICE BOISE ID
600 AM MDT TUE JUL 26 2016

NOTE: "FAIR" INDICATES FEW OR NO CLOUDS BELOW 12000 FEET
WITH NO SIGNIFICANT WEATHER AND/OR OBSTRUCTIONS TO VISIBILITY

IDZ012-014-261300-
SOUTHWEST IDAHO


CITY           SKY/WX    TMP DP  RH WIND       PRES   REMARKS
BOISE          CLEAR     69  36  29 S7        29.97R
CALDWELL       NOT AVBL
MOUNTAIN HOME  CLEAR     61  31  32 E3        29.98R
$$

IDZ016-017-261300-
SOUTHCENTRAL IDAHO


CITY           SKY/WX    TMP DP  RH WIND       PRES   REMARKS
BURLEY         CLEAR     54  45  71 N6        30.05R
JEROME         CLEAR     68  31  25 NE12      30.05R
TWIN FALLS     CLEAR     61  32  33 CALM      30.05R
$$

IDZ019>023-261300-
SOUTHEAST IDAHO


CITY           SKY/WX    TMP DP  RH WIND       PRES   REMARKS
IDAHO FALLS    CLOUDY    48  41  76 N3        30.13R
POCATELLO      CLEAR     52  37  56 W3        30.10R
REXBURG        CLEAR     50  43  77 NE3       30.14R
$$

IDZ006-010-011-018-031-032-261300-
CENTRAL IDAHO MOUNTAINS


CITY           SKY/WX    TMP DP  RH WIND       PRES   REMARKS
MCCALL         PTCLDY    56  46  69 CALM      30.15R
HAILEY         CLEAR     55  32  41 NW12      30.19R
STANLEY        NOT AVBL
SALMON         CLOUDY    52  39  62 CALM      30.12R
CHALLIS        CLEAR     55  33  43 CALM      30.18R
$$

IDZ002-004-006-007-026-261300-
NORTHERN IDAHO


CITY           SKY/WX    TMP DP  RH WIND       PRES   REMARKS
LEWISTON       CLEAR     67  49  52 SE3       29.97R
LOWELL           N/A     58  53  84 NW3       30.05R
COEUR D`ALENE  CLEAR     61  54  77 E5        29.99R
MULLAN PASS    PTCLDY    66  41  40 S3        30.21S
$$




USA.gov is the U.S. government's official web portal to all federal, state and local government web resources and services.